Location: Gibsondale
(40.9931°N, 80.2478°W)
Time: 09:28:01
(UTC+00:00)

YAOGAN 1 - Pass Details

Date: 29 October 2020
Orbit: 618 x 620 km, 97.9° (Epoch: 26 November)

Event Time Altitude Azimuth Distance (km) Brightness Sun altitude
Rises 23:41:20 0° 154° (SSE) 2,883 5.8 -15.9°
Reaches altitude 10° 23:43:32 10° 150° (SSE) 1,982 4.9 -16.3°
Maximum altitude 23:47:44 53° 73° (ENE) 764 2.6 -17.1°
Drops below altitude 10° 23:51:57 10° 357° (N) 1,995 5.2 -17.9°
Sets 23:54:11 0° 353° (N) 2,906 6.1 -18.3°
